�������l�o���
Date,Time,MP-1(��Sv/h),MP-2(��Sv/h),MP-3(��Sv/h),MP-4(��Sv/h),MP-5(��Sv/h),MP-6(��Sv/h),MP-7(��Sv/h),����,����(m/s),���J
2021/02/21,00:00,0.176,0.159,0.254,0.242,0.239,0.139,0.085,�k��,6.0,��
2021/02/21,00:10,0.175,0.158,0.254,0.242,0.239,0.139,0.085,��,8.5,��
2021/02/21,00:20,0.176,0.159,0.255,0.243,0.240,0.140,0.084,��,5.5,��
2021/02/21,00:30,0.177,0.158,0.255,0.243,0.239,0.139,0.085,���쐼,7.5,��
2021/02/21,00:40,0.176,0.158,0.254,0.243,0.237,0.139,0.085,���k��,5.0,��
2021/02/21,00:50,0.176,0.158,0.256,0.243,0.238,0.138,0.085,��,4.0,��
2021/02/21,01:00,0.177,0.159,0.256,0.243,0.238,0.139,0.084,��,4.9,��
2021/02/21,01:10,0.176,0.157,0.254,0.242,0.238,0.139,0.085,���쐼,3.9,��
2021/02/21,01:20,0.176,0.158,0.255,0.242,0.238,0.139,0.085,�쐼,1.7,��
2021/02/21,01:30,0.176,0.159,0.255,0.243,0.240,0.138,0.084,��,2.2,��
2021/02/21,01:40,0.176,0.158,0.255,0.243,0.238,0.139,0.085,�쐼,0.8,��
2021/02/21,01:50,0.176,0.158,0.253,0.241,0.237,0.139,0.085,���쐼,1.9,��
2021/02/21,02:00,0.176,0.159,0.255,0.242,0.238,0.139,0.085,�k��,1.0,��
2021/02/21,02:10,0.175,0.158,0.254,0.244,0.238,0.140,0.085,���쐼,1.0,��
2021/02/21,02:20,0.176,0.158,0.255,0.242,0.238,0.139,0.084,���쐼,2.2,��
2021/02/21,02:30,0.175,0.159,0.255,0.243,0.238,0.139,0.085,-,CALM,��
2021/02/21,02:40,0.176,0.158,0.255,0.242,0.238,0.139,0.084,�k,0.8,��
2021/02/21,02:50,0.176,0.158,0.256,0.242,0.237,0.139,0.085,�k��,2.0,��
2021/02/21,03:00,0.176,0.158,0.255,0.242,0.238,0.138,0.085,���k��,3.6,��
2021/02/21,03:10,0.175,0.159,0.256,0.243,0.239,0.139,0.085,�k�k��,0.7,��
2021/02/21,03:20,0.175,0.157,0.255,0.243,0.237,0.138,0.085,�k��,0.9,��
2021/02/21,03:30,0.176,0.158,0.255,0.242,0.238,0.139,0.084,��,1.3,��
2021/02/21,03:40,0.175,0.159,0.255,0.241,0.238,0.138,0.085,���쐼,0.7,��
2021/02/21,03:50,0.176,0.158,0.256,0.244,0.238,0.139,0.085,���k��,0.9,��
2021/02/21,04:00,0.176,0.158,0.254,0.242,0.237,0.139,0.085,�k�k��,1.8,��
2021/02/21,04:10,0.177,0.159,0.255,0.242,0.239,0.139,0.085,�k�k��,1.7,��
2021/02/21,04:20,0.175,0.159,0.254,0.242,0.238,0.139,0.084,���k��,0.9,��
2021/02/21,04:30,0.176,0.158,0.254,0.243,0.238,0.139,0.085,���k��,2.1,��
2021/02/21,04:40,0.177,0.158,0.255,0.243,0.239,0.139,0.084,��쓌,0.8,��
2021/02/21,04:50,0.177,0.158,0.255,0.242,0.238,0.139,0.084,�쐼,1.0,��
2021/02/21,05:00,0.175,0.157,0.256,0.242,0.238,0.139,0.085,��,2.7,��
2021/02/21,05:10,0.176,0.158,0.256,0.243,0.237,0.138,0.085,���쐼,2.4,��
2021/02/21,05:20,0.176,0.158,0.255,0.243,0.239,0.140,0.084,��,2.4,��
2021/02/21,05:30,0.176,0.159,0.255,0.242,0.237,0.139,0.085,��,1.4,��
2021/02/21,05:40,0.176,0.159,0.255,0.241,0.238,0.138,0.084,��쐼,1.0,��
2021/02/21,05:50,0.176,0.158,0.254,0.242,0.239,0.139,0.085,�쓌,2.8,��
2021/02/21,06:00,0.177,0.159,0.256,0.242,0.237,0.139,0.085,�쓌,3.3,��
2021/02/21,06:10,0.176,0.158,0.255,0.242,0.237,0.138,0.085,�쓌,3.6,��
2021/02/21,06:20,0.177,0.159,0.255,0.242,0.239,0.138,0.085,��쓌,3.2,��
2021/02/21,06:30,0.176,0.159,0.255,0.244,0.237,0.139,0.085,��쐼,2.8,��
2021/02/21,06:40,0.175,0.159,0.255,0.242,0.237,0.139,0.085,�쐼,2.2,��
2021/02/21,06:50,0.176,0.159,0.256,0.243,0.238,0.139,0.085,���쐼,2.2,��
2021/02/21,07:00,0.176,0.158,0.256,0.242,0.238,0.139,0.085,��,4.2,��
2021/02/21,07:10,0.175,0.158,0.255,0.243,0.238,0.138,0.085,��,4.1,��
2021/02/21,07:20,0.176,0.158,0.256,0.243,0.239,0.139,0.085,���쐼,3.3,��
2021/02/21,07:30,0.176,0.158,0.256,0.242,0.239,0.140,0.085,�쐼,3.7,��
2021/02/21,07:40,0.176,0.158,0.255,0.244,0.238,0.139,0.084,��쐼,1.6,��
2021/02/21,07:50,0.177,0.158,0.255,0.242,0.238,0.139,0.084,��쓌,2.8,��
2021/02/21,08:00,0.176,0.159,0.255,0.242,0.237,0.139,0.085,��쓌,2.9,��
2021/02/21,08:10,0.175,0.159,0.256,0.242,0.237,0.138,0.085,��쓌,4.1,��
2021/02/21,08:20,0.176,0.158,0.254,0.243,0.239,0.138,0.086,��,4.7,��
2021/02/21,08:30,0.176,0.159,0.254,0.242,0.238,0.139,0.085,��,5.5,��
2021/02/21,08:40,0.176,0.158,0.255,0.243,0.239,0.139,0.085,��쓌,5.2,��
2021/02/21,08:50,0.176,0.158,0.255,0.242,0.239,0.138,0.086,��,5.9,��
2021/02/21,09:00,0.175,0.158,0.254,0.242,0.238,0.139,0.086,��,6.0,��
2021/02/21,09:10,0.176,0.158,0.254,0.244,0.239,0.138,0.086,��쓌,5.8,��
2021/02/21,09:20,0.177,0.158,0.255,0.243,0.238,0.139,0.085,��,6.7,��
2021/02/21,09:30,0.175,0.158,0.253,0.243,0.238,0.137,0.086,��쓌,7.8,��
2021/02/21,09:40,0.176,0.158,0.255,0.243,0.237,0.138,0.085,��쓌,7.3,��
2021/02/21,09:50,0.174,0.158,0.253,0.242,0.238,0.138,0.084,��쓌,8.5,��
2021/02/21,10:00,0.176,0.157,0.255,0.242,0.238,0.137,0.085,��쓌,7.0,��
2021/02/21,10:10,0.176,0.158,0.255,0.241,0.237,0.139,0.085,��쓌,7.3,��
2021/02/21,10:20,0.177,0.158,0.255,0.244,0.239,0.139,0.086,��쓌,6.2,��
2021/02/21,10:30,0.174,0.158,0.254,0.241,0.238,0.139,0.084,��쓌,5.7,��
2021/02/21,10:40,0.177,0.159,0.255,0.243,0.239,0.140,0.085,��쓌,5.3,��
2021/02/21,10:50,0.176,0.158,0.256,0.242,0.238,0.139,0.085,��쓌,5.7,��
2021/02/21,11:00,0.177,0.158,0.254,0.242,0.239,0.139,0.085,��쓌,5.4,��
2021/02/21,11:10,0.176,0.159,0.255,0.242,0.238,0.139,0.086,��쓌,5.1,��
2021/02/21,11:20,0.178,0.158,0.254,0.243,0.239,0.139,0.085,��쓌,3.2,��
2021/02/21,11:30,0.175,0.157,0.254,0.242,0.237,0.138,0.085,�쓌,4.0,��
2021/02/21,11:40,0.176,0.159,0.254,0.243,0.238,0.139,0.085,��쓌,3.6,��
2021/02/21,11:50,0.175,0.158,0.254,0.242,0.240,0.139,0.085,��쓌,2.0,��
2021/02/21,12:00,0.176,0.158,0.255,0.243,0.236,0.139,0.085,�쓌,2.3,��
2021/02/21,12:10,0.175,0.158,0.251,0.243,0.240,0.139,0.085,�쓌,3.4,��
2021/02/21,12:20,0.174,0.158,0.255,0.240,0.236,0.139,0.084,�쓌,4.2,��
2021/02/21,12:30,0.176,0.158,0.254,0.242,0.236,0.139,0.085,��쓌,3.3,��
2021/02/21,12:40,0.177,0.158,0.252,0.241,0.238,0.138,0.084,��쓌,4.5,��
2021/02/21,12:50,0.174,0.159,0.255,0.242,0.237,0.138,0.085,��쓌,2.0,��
2021/02/21,13:00,0.176,0.159,0.254,0.243,0.237,0.140,0.085,���쐼,3.2,��
2021/02/21,13:10,0.175,0.158,0.254,0.240,0.240,0.138,0.084,��,8.5,��
2021/02/21,13:20,0.174,0.158,0.256,0.243,0.236,0.140,0.084,��,9.6,��
2021/02/21,13:30,0.176,0.159,0.254,0.243,0.237,0.139,0.084,���k��,10.3,��
2021/02/21,13:40,0.175,0.158,0.254,0.241,0.237,0.139,0.084,��,7.4,��
2021/02/21,13:50,0.174,0.158,0.255,0.242,0.236,0.139,0.085,���k��,9.0,��
2021/02/21,14:00,0.176,0.159,0.253,0.243,0.236,0.139,0.084,���k��,6.1,��
2021/02/21,14:10,0.177,0.157,0.256,0.240,0.239,0.137,0.084,�k��,5.8,��
2021/02/21,14:20,0.175,0.159,0.254,0.242,0.238,0.138,0.085,���k��,5.7,��
2021/02/21,14:30,0.178,0.158,0.255,0.242,0.237,0.139,0.085,���k��,7.0,��
2021/02/21,14:40,0.176,0.157,0.257,0.241,0.238,0.139,0.086,�k��,7.5,��
2021/02/21,14:50,0.175,0.158,0.255,0.242,0.240,0.139,0.085,���k��,6.9,��
2021/02/21,15:00,0.177,0.157,0.256,0.242,0.237,0.138,0.085,���k��,7.3,��
2021/02/21,15:10,0.175,0.159,0.256,0.243,0.237,0.138,0.085,���k��,6.6,��
2021/02/21,15:20,0.176,0.159,0.255,0.244,0.240,0.139,0.084,���k��,4.6,��
2021/02/21,15:30,0.177,0.158,0.255,0.244,0.237,0.139,0.085,���k��,3.4,��
2021/02/21,15:40,0.175,0.159,0.256,0.242,0.241,0.137,0.085,��,3.8,��
2021/02/21,15:50,0.179,0.159,0.256,0.244,0.238,0.137,0.085,�k��,3.4,��
2021/02/21,16:00,0.176,0.159,0.255,0.244,0.240,0.140,0.085,�k��,4.7,��
2021/02/21,16:10,0.177,0.159,0.256,0.243,0.239,0.139,0.085,���k��,2.3,��
2021/02/21,16:20,0.176,0.158,0.255,0.242,0.239,0.139,0.085,��,1.4,��
2021/02/21,16:30,0.177,0.159,0.257,0.243,0.240,0.139,0.084,�k��,0.6,��
2021/02/21,16:40,0.175,0.158,0.255,0.243,0.238,0.139,0.085,���k��,1.3,��
2021/02/21,16:50,0.177,0.159,0.256,0.244,0.240,0.139,0.085,�k��,2.8,��
2021/02/21,17:00,0.176,0.160,0.256,0.242,0.239,0.139,0.085,�k��,3.7,��
2021/02/21,17:10,0.176,0.159,0.257,0.243,0.240,0.139,0.085,���k��,4.8,��
2021/02/21,17:20,0.176,0.159,0.257,0.244,0.239,0.139,0.085,�k��,3.8,��
2021/02/21,17:30,0.175,0.159,0.257,0.242,0.238,0.139,0.085,���k��,3.7,��
2021/02/21,17:40,0.177,0.160,0.255,0.243,0.240,0.139,0.085,���k��,4.8,��
2021/02/21,17:50,0.176,0.158,0.257,0.242,0.238,0.140,0.086,��,1.9,��
2021/02/21,18:00,0.177,0.159,0.255,0.244,0.241,0.138,0.085,��쐼,2.1,��
2021/02/21,18:10,0.177,0.160,0.257,0.243,0.239,0.140,0.085,��쐼,1.5,��
2021/02/21,18:20,0.177,0.159,0.257,0.243,0.239,0.140,0.085,��쓌,2.4,��
2021/02/21,18:30,0.176,0.159,0.256,0.244,0.239,0.140,0.086,��,3.4,��
2021/02/21,18:40,0.176,0.160,0.257,0.242,0.239,0.140,0.085,��쐼,2.1,��
2021/02/21,18:50,0.177,0.160,0.256,0.243,0.240,0.140,0.086,�쐼,1.9,��
2021/02/21,19:00,0.177,0.159,0.256,0.243,0.239,0.140,0.085,���쐼,2.6,��
2021/02/21,19:10,0.176,0.159,0.256,0.243,0.238,0.138,0.086,��,3.2,��
2021/02/21,19:20,0.177,0.159,0.256,0.243,0.238,0.140,0.085,���쐼,3.2,��
2021/02/21,19:30,0.178,0.158,0.256,0.243,0.237,0.140,0.085,���쐼,2.7,��
2021/02/21,19:40,0.177,0.159,0.255,0.243,0.239,0.140,0.085,��,2.5,��
2021/02/21,19:50,0.176,0.158,0.257,0.244,0.237,0.139,0.085,��쓌,4.0,��
2021/02/21,20:00,0.177,0.159,0.256,0.243,0.238,0.140,0.085,��쓌,3.8,��
2021/02/21,20:10,0.176,0.159,0.256,0.243,0.239,0.139,0.085,��쓌,3.1,��
2021/02/21,20:20,0.177,0.159,0.257,0.245,0.238,0.140,0.085,��,3.1,��
2021/02/21,20:30,0.177,0.159,0.256,0.243,0.239,0.140,0.085,��쓌,2.4,��
2021/02/21,20:40,0.176,0.159,0.256,0.242,0.240,0.139,0.085,��쓌,2.7,��
2021/02/21,20:50,0.177,0.159,0.256,0.244,0.239,0.139,0.086,��쓌,3.0,��
2021/02/21,21:00,0.177,0.159,0.257,0.244,0.239,0.139,0.085,��,3.2,��
2021/02/21,21:10,0.177,0.159,0.256,0.243,0.239,0.140,0.085,��,3.2,��
2021/02/21,21:20,0.177,0.160,0.258,0.244,0.238,0.139,0.085,��쐼,2.2,��
2021/02/21,21:30,0.177,0.159,0.255,0.244,0.239,0.139,0.086,���쐼,2.3,��
2021/02/21,21:40,0.176,0.159,0.258,0.242,0.239,0.140,0.085,���k��,2.0,��
2021/02/21,21:50,0.177,0.160,0.257,0.243,0.240,0.140,0.086,���k��,4.4,��
2021/02/21,22:00,0.176,0.161,0.256,0.243,0.239,0.140,0.086,���k��,4.3,��
2021/02/21,22:10,0.177,0.159,0.256,0.244,0.239,0.139,0.087,���k��,2.1,��
2021/02/21,22:20,0.177,0.159,0.257,0.243,0.239,0.140,0.085,�쓌,1.2,��
2021/02/21,22:30,0.177,0.159,0.256,0.244,0.239,0.141,0.085,�쓌,2.0,��
2021/02/21,22:40,0.178,0.159,0.256,0.244,0.239,0.140,0.085,��,1.7,��
2021/02/21,22:50,0.176,0.159,0.257,0.242,0.239,0.140,0.085,��쐼,1.7,��
2021/02/21,23:00,0.177,0.161,0.255,0.244,0.239,0.139,0.085,�쐼,1.9,��
2021/02/21,23:10,0.177,0.158,0.256,0.243,0.238,0.140,0.084,���쐼,2.3,��
2021/02/21,23:20,0.176,0.158,0.257,0.243,0.239,0.140,0.086,�쐼,2.9,��
2021/02/21,23:30,0.177,0.159,0.257,0.243,0.239,0.139,0.085,�쐼,4.5,��
2021/02/21,23:40,0.178,0.160,0.256,0.243,0.238,0.139,0.085,�쐼,5.0,��
2021/02/21,23:50,0.176,0.158,0.256,0.243,0.240,0.139,0.085,�쐼,5.0,��
